Погода в Велико-Тырнове

Болгария     43°04′37″N   25°36′58″E
темп.,
°C
ветер,
м/с
пор.,
м/с
влажн.,
%
обл.,
%
осадки,
мм/ч
давл.,
гПа
погр.,
м
7 мая, пт
пт700:00+12ю22890 0.0 101515
03:00+12ю22835 0.0 101425
06:00+11ю22844 0.0 101332
09:00+18ю2463100 0.0 1013352
12:00+23ю3346100 0.0 10121195
15:00+24ю444382 0.0 10101720
18:00+22ю465898 0.0 1008639
21:00+17ю3375100 0.0 100851
8 мая, сб
сб800:00+16ююз3373100 0.0 100939
03:00+15юз227223 0.0 100918
06:00+12з7157637 0.0 1014697
09:00+12зсз71371100 0.0 1017893
12:00+13зсз71058100 0.0 10181022
15:00+14зсз6859100 0.0 10181263
18:00+14зсз575628 0.0 10181318
21:00+9сз12754 0.0 102121
9 мая, вс
вс900:00+6зюз11900 0.0 102411
03:00+5ююз229121 0.0 102520
06:00+5ю118315 0.0 102611
09:00+11всв22655 0.0 1027467
12:00+15св33515 0.0 10261357
15:00+17св444617 0.0 10251543
18:00+16всв34555 0.0 10241084
21:00+11ююв49703 0.0 1026309
10 мая, пн
пн1000:00+7ююв35800 0.0 102798
03:00+5ююв33770 0.0 102751
06:00+5ю22713 0.0 102629
09:00+12юв24495 0.0 1026440
12:00+17в23370 0.0 10241276
15:00+20в23350 0.0 10231498
18:00+18вюв23480 0.0 1022796
21:00+10ююв33740 0.0 102445
11 мая, вт
вт1100:00+7ю33770 0.0 102450
03:00+5ю22740 0.0 102335
06:00+5ю22660 0.0 102320
09:00+12в11510 0.0 1022326
12:00+17св32430 0.0 1021952
15:00+19ссв33410 0.0 1019986
18:00+18св33530 0.0 1017808
21:00+11ююв11800 0.0 101717